#timestamp,LO_Frequency,Hit,StdDev 
1645304415.6,286046986.1,N
1645304435.5,286046990.6,N
1645304455.3,286046987.3,N
1645304475.1,286046991.4,N
1645304495.9,286046988.1,N
1645304515.7,286046991.3,N
1645304535.5,286046992.9,N
1645304555.4,286046992.0,N
1645304575.2,286046991.3,N
1645304595.1,286046992.2,N
1645304596.0,286046992.2,N
1645304615.8,286046993.0,N
1645304635.6,286046992.9,N
1645304655.5,286046984.3,Y
1645304675.3,286046995.1,P
1645304695.1,286047004.2,N
1645304715.9,286047003.0,N
1645304735.7,286047004.4,N
1645304755.6,286046998.1,N
1645304775.4,286046998.6,N
1645304795.2,286046999.3,N
1645304815.1,286046998.6,N
1645304816.0,286046998.6,N
1645304835.8,286047000.8,N
1645304855.6,286046998.6,N
1645304875.5,286046996.0,N
1645304895.3,286046995.9,N
1645304915.2,286046998.9,N
1645304935.9,286047004.8,N
1645304955.7,286047001.6,N
1645304975.6,286047006.7,N
1645304995.4,286047006.5,N
1645305015.2,286047009.5,N
1645305035.1,286047013.1,N
1645305036.0,286047013.1,N
1645305055.8,286047012.6,N
1645305075.7,286047014.3,N
1645305095.5,286047012.1,N
1645305115.3,286047009.9,N
1645305135.2,286047011.9,N
1645305155.0,286047009.1,N
1645305155.9,286047009.1,N
1645305175.7,286047001.4,N
1645305195.6,286046994.0,N
1645305215.4,286046993.4,N
1645305235.3,286046994.9,N
1645305255.1,286046997.1,N
1645305256.0,286046997.1,N
1645305275.8,286047001.0,N
1645305295.7,286047002.2,N
1645305315.5,286047002.0,N
1645305335.3,286047006.7,N
1645305355.2,286047008.2,N
1645305375.0,286047005.7,N
1645305375.9,286047005.7,N
1645305395.8,286047003.4,N
1645305415.6,286046999.7,N
1645305435.4,286047002.1,N
1645305455.3,286047000.3,N
1645305475.1,286047005.6,N
1645305495.8,286046999.0,N
1645305515.7,286046996.2,N
1645305535.5,286046990.9,N
1645305555.4,286046989.5,N
1645305575.2,286046991.6,N
1645305595.0,286046990.4,N
1645305595.9,286046990.4,N
1645305615.8,286046985.3,N
1645305635.6,286046987.2,N
1645305655.4,286046984.6,N
1645305675.3,286046984.3,N
1645305695.1,286046987.5,N
1645305715.9,286046983.0,N
1645305735.7,286046978.8,N
1645305755.5,286046972.9,Y
1645305775.4,286046983.2,P
1645305795.2,286046984.8,N
1645305815.0,286046984.9,N
1645305816.0,286046984.9,Y
1645305835.8,286046992.2,P
1645305855.6,286046994.5,N
1645305875.5,286046998.6,N
1645305895.3,286047002.4,N
1645305915.1,286047003.5,N
1645305935.9,286047004.9,N
1645305955.7,286047005.2,N
1645305975.6,286047001.7,N
1645305995.4,286047003.6,N
1645306015.2,286047000.8,N
1645306035.1,286046995.3,N
1645306036.0,286046995.3,N
1645306055.8,286046993.9,N
1645306075.6,286046991.7,N
1645306095.5,286046998.2,N
1645306115.3,286046994.2,N
1645306135.1,286046988.1,N
1645306155.9,286046996.7,N
1645306205.8,286046990.4,E
1645306215.7,286046990.7,N
1645306235.5,286046995.1,P
1645306255.4,286046993.4,P
1645306275.2,286046995.8,N
1645306295.0,286046995.5,N
1645306295.9,286046995.5,N
1645306315.8,286046996.4,N
1645306335.6,286046999.5,N
1645306355.4,286046997.9,N
1645306375.3,286046987.8,Y
1645306395.1,286046991.6,P
1645306415.9,286046990.6,P
1645306435.7,286046989.0,P
1645306455.5,286046993.7,N
1645306475.4,286046996.1,N
1645306495.2,286047002.4,N
1645306515.0,286047003.7,N
1645306516.0,286047003.7,N
1645306535.8,286047007.4,N
1645306555.6,286047006.0,N
1645306575.5,286046999.8,N
1645306595.3,286046996.1,N
1645306615.1,286046998.8,N
1645306635.9,286047002.0,N
1645306655.7,286047001.5,N
1645306675.6,286047002.2,N
1645306695.4,286047001.1,N
1645306715.2,286047002.2,N
1645306735.1,286046997.3,N
1645306736.0,286046997.3,N
1645306755.8,286046992.2,N
1645306775.6,286046997.1,N
1645306795.5,286046995.8,N
1645306815.3,286046990.3,N
1645306835.2,286046983.8,Y
1645306855.9,286046982.2,P
1645306875.7,286046988.7,N
1645306895.6,286046989.5,N
1645306915.4,286046987.6,N
1645306935.2,286046989.4,N
1645306955.1,286046987.9,N
1645306956.0,286046987.9,N
1645306975.8,286046987.4,Y
1645306995.7,286046999.6,P
1645307015.5,286046989.1,N
1645307035.3,286046980.6,P
1645307055.2,286046977.0,Y
1645307075.0,286046983.1,P
1645307075.9,286046983.1,P
1645307095.8,286046980.6,P
1645307115.6,286046979.0,Y
1645307135.4,286046994.3,P
1645307155.3,286046991.8,N
1645307175.1,286046992.8,N
1645307195.8,286046993.5,N
1645307215.7,286047006.5,N
1645307235.5,286047010.4,N
1645307255.4,286047011.6,N
1645307275.2,286047013.1,N
1645307295.0,286047013.0,N
1645307295.9,286047013.0,N
1645307315.8,286047020.7,N
1645307335.6,286047021.9,N
1645307355.4,286047012.9,N
1645307375.3,286047006.2,N
1645307395.1,286047013.3,N
1645307415.9,286047016.4,N
1645307435.7,286047017.3,N
1645307455.5,286047017.6,N
1645307475.4,286047018.9,N
1645307495.2,286047031.0,N
1645307515.0,286047036.6,Y
1645307516.0,286047036.6,P
1645307535.8,286047032.3,N
1645307555.6,286047029.3,N
1645307575.5,286047030.3,N
1645307595.3,286047030.9,Y
1645307615.1,286046999.8,P
1645307635.9,286047003.4,N
1645307655.7,286047008.1,N
1645307675.6,286047013.5,N
1645307695.4,286047014.9,N
1645307715.2,286047022.8,N
1645307735.1,286047022.3,N
1645307736.0,286047022.3,N
1645307755.8,286047025.4,N
1645307775.6,286047027.6,Y
1645307795.5,286047010.3,P
1645307815.3,286047004.9,N
1645307835.2,286047007.9,N
1645307855.9,286047006.8,N
1645307875.7,286047005.2,N
1645307895.6,286047008.5,N
1645307915.4,286047011.2,Y
1645307935.2,286046999.9,P
1645307955.1,286047000.7,N
1645307956.0,286047000.7,N
1645307975.8,286047001.6,N
1645307995.7,286047006.3,N
